CW6532 Weather Reports


Display with metric or nautical units.
time (UTC)temp
F
wind
direction
speed
MPH
gust
MPH
rain 1hr
in
rain 24hr
in
rain mn
in
humidity
%
barometer
mb
20260831064339 84 227 3.0 4.0 0.00 0.00 0.00 44 1023.9
20260831063334 84 293 2.0 3.0 0.00 0.00 0.00 43 1024.0
20260831062322 84 293 2.0 2.0 0.00 0.00 0.00 43 1024.2
20260831061340 84 293 0.0 1.0 0.00 0.00 0.00 43 1024.1
20260831060327 84 293 1.0 3.0 0.00 0.00 0.00 43 1024.3
20260831055323 84 293 2.0 3.0 0.00 0.00 0.00 43 1024.1
20260831054341 84 293 2.0 2.0 0.00 0.00 0.00 43 1023.9
20260831053330 85 293 1.0 2.0 0.00 0.00 0.00 42 1024.0
20260831052325 85 293 0.0 2.0 0.00 0.00 0.00 42 1023.9
20260831051337 85 293 0.0 2.0 0.00 0.00 0.00 42 1023.9
20260831050354 85 293 0.0 2.0 0.00 0.00 0.00 41 1023.8
20260831045328 85 293 1.0 4.0 0.00 0.00 0.00 41 1023.8
20260831044406 86 63 1.0 2.0 0.00 0.00 0.00 41 1023.8
20260831043335 86 63 0.0 4.0 0.00 0.00 0.00 40 1023.9
20260831042324 86 355 1.0 3.0 0.00 0.00 0.00 40 1024.0
20260831041323 86 355 2.0 10.0 0.00 0.00 0.00 40 1023.8
20260831040340 87 310 6.0 11.0 0.00 0.00 0.00 39 1023.5
20260831035328 87 317 5.0 17.0 0.00 0.00 0.00 39 1023.3
20260831034348 87 286 8.0 17.0 0.00 0.00 0.00 38 1023.1
20260831033343 88 302 11.0 19.0 0.00 0.00 0.00 37 1022.9
20260831032331 89 291 11.0 17.0 0.00 0.00 0.00 36 1022.7
20260831031333 91 313 12.0 18.0 0.00 0.00 0.00 33 1022.4
20260831030324 91 265 3.0 11.0 0.00 0.00 0.00 31 1022.1
20260831025340 92 306 4.0 8.0 0.00 0.00 0.00 30 1021.7
20260831024331 92 306 4.0 10.0 0.00 0.00 0.00 31 1021.6
20260831023328 92 300 5.0 9.0 0.00 0.00 0.00 30 1021.3
20260831022332 92 295 6.0 12.0 0.00 0.00 0.00 30 1021.0
20260831021330 92 303 8.0 10.0 0.00 0.00 0.00 30 1021.0
20260831020346 92 277 3.0 8.0 0.00 0.00 0.00 30 1021.1
20260831015400 93 248 3.0 6.0 0.00 0.00 0.00 29 1020.9
20260831014333 93 265 4.0 9.0 0.00 0.00 0.00 29 1021.0
20260831013347 93 251 4.0 9.0 0.00 0.00 0.00 29 1020.9
20260831012336 93 261 5.0 9.0 0.00 0.00 0.00 29 1020.8
20260831011325 94 216 4.0 11.0 0.00 0.00 0.00 29 1020.7
20260831010339 94 248 6.0 11.0 0.00 0.00 0.00 29 1020.7
20260831004403 95 288 4.0 12.0 0.00 0.00 0.00 27 1020.6
20260831003356 96 253 9.0 14.0 0.00 0.00 0.00 27 1020.7
20260831002410 98 267 4.0 16.0 0.00 0.00 0.00 26 1020.6
20260831001402 98 286 2.0 8.0 0.00 0.00 0.00 25 1020.8
20260831000351 98 245 6.0 10.0 0.00 0.00 0.00 26 1020.8
20260830235407 97 9 3.0 12.0 0.00 0.00 0.00 26 1020.8
20260830234358 98 291 8.0 12.0 0.00 0.00 0.00 26 1020.7
20260830233347 98 244 4.0 9.0 0.00 0.00 0.00 26 1020.8
20260830232355 98 329 6.0 11.0 0.00 0.00 0.00 26 1020.9
20260830231347 96 323 3.0 13.0 0.00 0.00 0.00 26 1021.1
20260830230353 97 322 7.0 14.0 0.00 0.00 0.00 26 1021.2
20260830225408 97 309 6.0 15.0 0.00 0.00 0.00 26 1021.3
20260830224401 99 323 5.0 12.0 0.00 0.00 0.00 26 1021.4
20260830223351 98 221 2.0 10.0 0.00 0.00 0.00 25 1021.6
20260830222423 97 341 7.0 16.0 0.00 0.00 0.00 26 1022.0
20260830221355 99 235 8.0 15.0 0.00 0.00 0.00 24 1022.0
20260830220358 98 236 5.0 10.0 0.00 0.00 0.00 25 1022.3
20260830215346 99 254 6.0 12.0 0.00 0.00 0.00 24 1022.6
20260830214355 97 30 2.0 12.0 0.00 0.00 0.00 25 1022.8
20260830213411 98 293 6.0 13.0 0.00 0.00 0.00 24 1022.8
20260830212400 97 234 11.0 15.0 0.00 0.00 0.00 25 1023.0
20260830211350 98 315 7.0 13.0 0.00 0.00 0.00 25 1023.2
20260830210415 99 262 1.0 6.0 0.00 0.00 0.00 24 1023.4
20260830205428 96 304 3.0 10.0 0.00 0.00 0.00 26 1023.6
20260830204359 97 216 4.0 17.0 0.00 0.00 0.00 27 1023.9
20260830203355 97 315 5.0 14.0 0.00 0.00 0.00 27 1024.0
20260830202350 97 257 1.0 10.0 0.00 0.00 0.00 26 1024.1
20260830201409 95 270 6.0 13.0 0.00 0.00 0.00 27 1024.3
20260830200418 94 248 5.0 14.0 0.00 0.00 0.00 29 1024.5
20260830195353 94 23 6.0 15.0 0.00 0.00 0.00 29 1024.6
20260830194349 95 254 5.0 9.0 0.00 0.00 0.00 29 1024.7
20260830193413 94 253 6.0 17.0 0.00 0.00 0.00 29 1025.0
20260830192414 94 306 5.0 17.0 0.00 0.00 0.00 30 1025.1
20260830191354 94 253 5.0 12.0 0.00 0.00 0.00 29 1025.2
20260830190349 94 209 5.0 11.0 0.00 0.00 0.00 29 1025.4
20260830185346 93 146 8.0 12.0 0.00 0.00 0.00 30 1025.5
20260830184409 93 194 4.0 10.0 0.00 0.00 0.00 30 1025.6
20260830183404 93 302 5.0 9.0 0.00 0.00 0.00 30 1025.7
20260830182359 92 312 3.0 5.0 0.00 0.00 0.00 30 1025.8
20260830181354 91 148 2.0 14.0 0.00 0.00 0.00 32 1026.0
20260830180407 91 192 5.0 9.0 0.00 0.00 0.00 34 1026.2
20260830175401 90 167 6.0 9.0 0.00 0.00 0.00 35 1026.1
20260830174354 90 157 3.0 9.0 0.00 0.00 0.00 37 1026.2
20260830173350 89 190 7.0 10.0 0.00 0.00 0.00 37 1026.1
20260830172408 87 145 6.0 15.0 0.00 0.00 0.00 40 1026.3
20260830171348 86 226 11.0 17.0 0.00 0.00 0.00 42 1026.2
20260830170424 86 151 6.0 15.0 0.00 0.00 0.00 43 1026.2
20260830165356 86 152 5.0 10.0 0.00 0.00 0.00 42 1026.2
20260830164352 85 158 8.0 11.0 0.00 0.00 0.00 44 1026.2
20260830163431 84 178 8.0 11.0 0.00 0.00 0.00 44 1026.3
20260830162404 83 182 8.0 10.0 0.00 0.00 0.00 46 1026.4
20260830161359 83 211 8.0 12.0 0.00 0.00 0.00 47 1026.4
20260830160411 83 182 6.0 10.0 0.00 0.00 0.00 47 1026.5
20260830155404 83 238 7.0 10.0 0.00 0.00 0.00 46 1026.5
20260830154426 83 204 6.0 10.0 0.00 0.00 0.00 48 1026.5
20260830153425 83 240 5.0 6.0 0.00 0.00 0.00 48 1026.5
20260830152357 83 66 1.0 4.0 0.00 0.00 0.00 46 1026.4
20260830151355 82 66 2.0 4.0 0.00 0.00 0.00 49 1026.4
20260830150407 81 66 3.0 5.0 0.00 0.00 0.00 50 1026.5
20260830145400 81 57 4.0 5.0 0.00 0.00 0.00 51 1026.4
20260830144355 81 47 3.0 9.0 0.00 0.00 0.00 50 1026.4
20260830143349 80 42 4.0 7.0 0.00 0.00 0.00 50 1026.4
20260830142409 80 49 4.0 6.0 0.00 0.00 0.00 49 1026.6
20260830141404 81 50 5.0 8.0 0.00 0.00 0.00 48 1026.5
20260830140356 81 198 3.0 4.0 0.00 0.00 0.00 49 1026.5
20260830135348 81 244 3.0 6.0 0.00 0.00 0.00 48 1026.3
20260830134409 81 222 4.0 5.0 0.00 0.00 0.00 48 1026.4
20260830133410 81 234 3.0 6.0 0.00 0.00 0.00 48 1026.4
20260830132404 81 189 4.0 8.0 0.00 0.00 0.00 48 1026.4
20260830131358 81 167 4.0 9.0 0.00 0.00 0.00 48 1026.4
20260830130349 81 192 6.0 12.0 0.00 0.00 0.00 48 1026.2
20260830125408 81 117 6.0 11.0 0.00 0.00 0.00 49 1026.2
20260830124403 81 136 5.0 14.0 0.00 0.00 0.00 49 1026.0
20260830123357 81 159 6.0 18.0 0.00 0.00 0.00 49 1026.1
20260830122349 81 166 9.0 14.0 0.00 0.00 0.00 48 1025.8
20260830121349 82 133 10.0 18.0 0.00 0.00 0.00 48 1025.5
20260830120417 82 165 9.0 18.0 0.00 0.00 0.00 48 1025.4
20260830115415 82 159 14.0 21.0 0.00 0.00 0.00 47 1025.2
20260830114354 82 138 12.0 24.0 0.00 0.00 0.00 47 1024.9
20260830113426 82 123 11.0 20.0 0.00 0.00 0.00 47 1025.2
20260830112402 82 164 14.0 24.0 0.00 0.00 0.00 46 1025.2
20260830111425 82 174 14.0 23.0 0.00 0.00 0.00 45 1025.2
20260830110353 83 140 13.0 23.0 0.00 0.00 0.00 44 1025.1
20260830105346 83 156 12.0 22.0 0.00 0.00 0.00 42 1025.3
20260830104408 83 190 10.0 14.0 0.00 0.00 0.00 41 1025.4
20260830103402 83 140 9.0 14.0 0.00 0.00 0.00 43 1025.4
20260830102354 82 151 4.0 7.0 0.00 0.00 0.00 44 1025.3
20260830101349 82 178 2.0 3.0 0.00 0.00 0.00 44 1025.3
20260830100401 82 178 1.0 2.0 0.00 0.00 0.00 44 1024.7
20260830095354 82 178 1.0 4.0 0.00 0.00 0.00 43 1024.6
20260830094350 83 103 2.0 6.0 0.00 0.00 0.00 42 1024.6
20260830093410 83 215 1.0 4.0 0.00 0.00 0.00 42 1024.5
20260830092408 83 205 3.0 5.0 0.00 0.00 0.00 43 1024.6
20260830091403 83 69 0.0 5.0 0.00 0.00 0.00 43 1024.6
20260830090415 83 115 2.0 5.0 0.00 0.00 0.00 43 1024.5
20260830085346 83 333 1.0 6.0 0.00 0.00 0.00 43 1024.4
20260830084346 83 304 2.0 8.0 0.00 0.00 0.00 42 1024.4
20260830083406 83 251 6.0 12.0 0.00 0.00 0.00 42 1024.4
20260830082358 83 257 7.0 10.0 0.00 0.00 0.00 43 1024.2
20260830081353 83 277 4.0 8.0 0.00 0.00 0.00 43 1023.6
20260830080405 83 275 4.0 8.0 0.00 0.00 0.00 43 1023.6
20260830075355 83 360 6.0 18.0 0.00 0.00 0.00 43 1023.4
20260830074406 83 45 12.0 21.0 0.00 0.00 0.00 44 1023.5
20260830073405 83 54 15.0 24.0 0.00 0.00 0.00 44 1023.4
20260830072357 83 64 14.0 25.0 0.00 0.00 0.00 44 1023.5
20260830071346 83 61 16.0 26.0 0.00 0.00 0.00 44 1023.4
20260830070353 83 71 11.0 16.0 0.00 0.00 0.00 43 1023.6
20260830065409 83 51 6.0 9.0 0.00 0.00 0.00 42 1023.7